Weather in Ourense

Spain     42°20′41″N   7°51′55″W
temp.,
°C
wind,
m/s
gust,
m/s
humid.,
%
clouds,
%
prec.,
mm/h
press.,
hPa
HPBL,
m
19 september, sun
sun1923:00+10ne11835 0.0 102214
02:00+9ne01955 0.0 102311
05:00+8ne119548 0.0 102311
08:00+7e119692 0.0 102411
11:00+14nnw11665 0.0 1023359
14:00+20nw33400 0.0 10221059
17:00+23nw34324 0.0 10201936
20:00+19nnw365089 0.0 1020213
20 september, mon
mon2023:00+12n228956 0.0 102325
02:00+12nnw149576 0.0 1024193
05:00+11nnw239587 0.0 1024163
08:00+11nnw249397 0.0 1024224
11:00+14n376819 0.0 1025805
14:00+20nne57410 0.0 10231728
17:00+21nne78344 0.0 10212101
20:00+16nne610540 0.0 1023854
21 september, tue
tue2123:00+10n12880 0.0 102529
02:00+8ne11974 0.0 102713
05:00+8ene11976 0.0 102613
08:00+7ese119711 0.0 102611
11:00+13n11640 0.0 1026438
14:00+21nnw23330 0.0 10231424
17:00+23nnw35284 0.0 10202379
20:00+19nne474911 0.0 1020466
22 september, wed
wed2223:00+12ne11780 0.0 102311
02:00+10e11880 0.0 102311
05:00+9ese11890 0.0 102211
08:00+9e118712 0.0 102212
11:00+15nnw125768 0.0 1021394
14:00+21nnw343899 0.0 10191524
17:00+23n3432100 0.0 10172258
20:00+17nne2562100 0.0 1018326
23 september, thu
thu2323:00+11nne11905 0.1 102016
02:00+10ne11965 0.1 102015
05:00+9nne119717 0.0 102016
08:00+8n119984 0.0 102031
11:00+14nnw12749 0.0 1020370
14:00+21nnw23410 0.0 10181091
17:00+25n35326 0.0 10152115
20:00+20n595115 0.0 1015612